Tracking 31027 objects as of 19-Jul-2025
HD Live streaming from Space Station
objects crossing your sky now

ONEWEB-0362

Track ONEWEB-0362 now!
10-day predictions
ONEWEB-0362 is classified as:


NORAD ID: 49288
Int'l Code: 2021-090K
Perigee: 1,191.5 km
Apogee: 1,194.3 km
Inclination: 87.9 °
Period: 109.1 minutes
Semi major axis: 7563 km
RCS: Unknown
Launch date: October 14, 2021
Source: United Kingdom (UK)
Launch site: VOSTOCHNY COSMODROME (VOSTO)
Your satellite tracking list
ABS 3
Track 1 satellite(s)




NASA's NSSDC Master Catalog

Two Line Element Set (TLE):
1 49288U 21090K   25199.50752646  .00000090  00000-0  19285-3 0  9991
2 49288  87.9221  11.3208 0001901  85.5089 274.6261 13.19724746182905
Source of the keplerian elements: AFSPC